Hourly Weather Luhy

Today, 12 May, Wednesday

Time Temperature Precipitation Wind Pressure Humidity
00:00 +13°C° 0 mm 2 mps 715 mmHg 92%
01:00 +13°C° 0 mm 2 mps 714 mmHg 90%
02:00 +11°C° 0 mm 1 mps 713 mmHg 95%
03:00 +12°C° 0 mm 2 mps 713 mmHg 82%
04:00 +12°C° 0 mm 2 mps 712 mmHg 86%
05:00 +12°C° 0 mm 1 mps 712 mmHg 82%
06:00 +13°C° 0 mm 1 mps 713 mmHg 77%
07:00 +13°C° 0 mm 1 mps 713 mmHg 88%
08:00 +15°C° 0 mm 1 mps 712 mmHg 91%
09:00 +16°C° 0 mm 3 mps 713 mmHg 88%
10:00 +17°C° 0 mm 4 mps 713 mmHg 89%
11:00 +16°C° 0 mm 5 mps 713 mmHg 91%
12:00 +16°C° 0 mm 6 mps 713 mmHg 92%
13:00 +17°C° 0 mm 6 mps 712 mmHg 94%
14:00 +21°C° 0 mm 6 mps 712 mmHg 62%
15:00 +17°C° 0 mm 7 mps 712 mmHg 91%
16:00 +15°C° 0 mm 7 mps 711 mmHg 100%
17:00 +13°C° 0 mm 6 mps 711 mmHg 100%
18:00 +12°C° 0 mm 5 mps 711 mmHg 100%
19:00 +12°C° 0 mm 5 mps 710 mmHg 100%
20:00 +10°C° 0 mm 5 mps 710 mmHg 100%
21:00 +10°C° 0 mm 5 mps 709 mmHg 100%
22:00 +11°C° 0 mm 4 mps 709 mmHg 100%
23:00 +11°C° 0 mm 4 mps 709 mmHg 100%

Tomorrow, 13 May, Thursday

Time Temperature Precipitation Wind Pressure Humidity
00:00 +10°C° 0 mm 3 mps 709 mmHg 100%
01:00 +9°C° 0 mm 3 mps 708 mmHg 100%
02:00 +9°C° 0 mm 3 mps 707 mmHg 100%
03:00 +9°C° 0 mm 3 mps 707 mmHg 100%
04:00 +9°C° 0 mm 3 mps 706 mmHg 100%
05:00 +9°C° 0 mm 3 mps 706 mmHg 100%
06:00 +9°C° 0 mm 3 mps 706 mmHg 100%
07:00 +10°C° 0 mm 3 mps 706 mmHg 100%
08:00 +12°C° 0 mm 3 mps 706 mmHg 100%
09:00 +15°C° 0 mm 2 mps 706 mmHg 93%
10:00 +16°C° 0 mm 2 mps 706 mmHg 91%
11:00 +17°C° 0 mm 2 mps 706 mmHg 86%
12:00 +17°C° 0 mm 3 mps 706 mmHg 85%
13:00 +17°C° 0 mm 3 mps 706 mmHg 87%
14:00 +18°C° 0 mm 3 mps 705 mmHg 83%
15:00 +18°C° 0 mm 4 mps 705 mmHg 81%
16:00 +18°C° 0 mm 3 mps 705 mmHg 81%
17:00 +18°C° 0 mm 3 mps 705 mmHg 80%
18:00 +17°C° 0 mm 3 mps 705 mmHg 83%
19:00 +17°C° 0 mm 3 mps 705 mmHg 86%
20:00 +15°C° 0 mm 2 mps 704 mmHg 89%
21:00 +15°C° 0 mm 1 mps 704 mmHg 87%
22:00 +14°C° 0 mm 2 mps 704 mmHg 85%
23:00 +13°C° 0 mm 4 mps 704 mmHg 87%

Day after tomorrow, 14 May, Friday

Time Temperature Precipitation Wind Pressure Humidity
00:00 +13°C° 0 mm 6 mps 703 mmHg 87%
01:00 +13°C° 0 mm 6 mps 703 mmHg 85%
02:00 +12°C° 0 mm 4 mps 704 mmHg 87%
03:00 +12°C° 0 mm 3 mps 704 mmHg 90%
04:00 +12°C° 0 mm 2 mps 704 mmHg 92%
05:00 +12°C° 0 mm 1 mps 704 mmHg 94%
06:00 +12°C° 0 mm 1 mps 705 mmHg 95%
07:00 +12°C° 0 mm 2 mps 705 mmHg 98%
08:00 +11°C° 0 mm 3 mps 706 mmHg 98%
09:00 +12°C° 0 mm 3 mps 706 mmHg 97%
10:00 +11°C° 0 mm 3 mps 706 mmHg 100%
11:00 +11°C° 0 mm 6 mps 706 mmHg 93%
12:00 +13°C° 0 mm 6 mps 706 mmHg 87%
13:00 +14°C° 0 mm 4 mps 707 mmHg 86%
14:00 +15°C° 0 mm 5 mps 707 mmHg 87%
15:00 +15°C° 0 mm 5 mps 707 mmHg 86%
16:00 +15°C° 0 mm 5 mps 707 mmHg 85%
17:00 +15°C° 0 mm 4 mps 707 mmHg 86%
18:00 +14°C° 0 mm 5 mps 707 mmHg 89%
19:00 +13°C° 0 mm 4 mps 707 mmHg 90%
20:00 +12°C° 0 mm 4 mps 707 mmHg 91%
21:00 +12°C° 0 mm 5 mps 707 mmHg 91%
22:00 +10°C° 0 mm 5 mps 706 mmHg 91%
23:00 +10°C° 0 mm 7 mps 706 mmHg 92%

15 May, Saturday

Time Temperature Precipitation Wind Pressure Humidity
00:00 +10°C° 0 mm 7 mps 707 mmHg 94%
01:00 +10°C° 0 mm 5 mps 707 mmHg 91%
02:00 +9°C° 0 mm 6 mps 707 mmHg 95%
03:00 +9°C° 0 mm 6 mps 707 mmHg 98%
04:00 +10°C° 0 mm 5 mps 708 mmHg 94%
05:00 +10°C° 0 mm 5 mps 708 mmHg 94%
06:00 +11°C° 0.1 mm 4 mps 709 mmHg 98%
07:00 +11°C° 0.3 mm 3 mps 710 mmHg 97%
08:00 +13°C° 0 mm 2 mps 710 mmHg 94%
09:00 +12°C° 0.1 mm 3 mps 710 mmHg 96%
10:00 +13°C° 0.1 mm 4 mps 711 mmHg 92%
11:00 +15°C° 0 mm 5 mps 711 mmHg 90%
12:00 +15°C° 0 mm 5 mps 711 mmHg 89%
13:00 +17°C° 0 mm 4 mps 711 mmHg 86%
14:00 +18°C° 0 mm 3 mps 711 mmHg 83%
15:00 +18°C° 0 mm 3 mps 710 mmHg 80%
16:00 +18°C° 0.1 mm 2 mps 710 mmHg 81%
17:00 +17°C° 0.3 mm 2 mps 710 mmHg 92%
18:00 +14°C° 1.9 mm 4 mps 710 mmHg 100%
19:00 +15°C° 1.3 mm 1 mps 710 mmHg 100%
20:00 +14°C° 0.1 mm 1 mps 710 mmHg 100%
21:00 +14°C° 0 mm 1 mps 710 mmHg 98%
22:00 +14°C° 0 mm 2 mps 710 mmHg 96%
23:00 +14°C° 0 mm 1 mps 710 mmHg 91%

16 May, Sunday

Time Temperature Precipitation Wind Pressure Humidity
00:00 +14°C° 0 mm 1 mps 710 mmHg 87%
01:00 +13°C° 0 mm 0 mps 710 mmHg 88%
02:00 +12°C° 0 mm 0 mps 710 mmHg 91%
03:00 +12°C° 0 mm 0 mps 710 mmHg 94%
04:00 +12°C° 0 mm 1 mps 710 mmHg 93%
05:00 +13°C° 0 mm 1 mps 710 mmHg 89%
06:00 +13°C° 0 mm 1 mps 710 mmHg 83%
07:00 +14°C° 0 mm 1 mps 710 mmHg 88%
08:00 +14°C° 0 mm 0 mps 710 mmHg 87%
09:00 +18°C° 0 mm 1 mps 710 mmHg 87%
10:00 +18°C° 0 mm 2 mps 710 mmHg 86%
11:00 +18°C° 0 mm 3 mps 710 mmHg 87%
12:00 +19°C° 0 mm 3 mps 709 mmHg 92%
13:00 +16°C° 0.3 mm 5 mps 709 mmHg 91%
14:00 +17°C° 2.6 mm 4 mps 709 mmHg 89%
15:00 +16°C° 0.2 mm 3 mps 708 mmHg 97%
16:00 +18°C° 0 mm 1 mps 707 mmHg 97%
17:00 +14°C° 6.4 mm 3 mps 708 mmHg 97%
18:00 +16°C° 0.1 mm 2 mps 707 mmHg 90%
19:00 +16°C° 0 mm 3 mps 707 mmHg 98%
20:00 +14°C° 2.3 mm 2 mps 707 mmHg 100%
21:00 +14°C° 0.9 mm 1 mps 707 mmHg 100%
22:00 +15°C° 0 mm 1 mps 707 mmHg 94%
23:00 +15°C° 0 mm 1 mps 707 mmHg 88%

17 May, Monday

Time Temperature Precipitation Wind Pressure Humidity
00:00 +15°C° 0 mm 1 mps 707 mmHg 86%
01:00 +14°C° 0 mm 1 mps 707 mmHg 88%
02:00 +14°C° 0 mm 1 mps 707 mmHg 93%
03:00 +13°C° 0 mm 1 mps 707 mmHg 94%
04:00 +13°C° 0 mm 1 mps 707 mmHg 92%
05:00 +12°C° 0 mm 1 mps 707 mmHg 94%
06:00 +12°C° 0 mm 1 mps 708 mmHg 97%
07:00 +11°C° 0.6 mm 4 mps 709 mmHg 100%
08:00 +12°C° 0.2 mm 3 mps 708 mmHg 95%
09:00 +14°C° 0 mm 2 mps 708 mmHg 92%
10:00 +15°C° 0 mm 4 mps 709 mmHg 88%
11:00 +15°C° 0.2 mm 4 mps 709 mmHg 92%
12:00 +16°C° 0 mm 5 mps 709 mmHg 81%
13:00 +17°C° 0 mm 4 mps 709 mmHg 83%
14:00 +17°C° 0.2 mm 5 mps 709 mmHg 84%
15:00 +17°C° 0 mm 5 mps 709 mmHg 79%
16:00 +19°C° 0 mm 4 mps 709 mmHg 77%
17:00 +19°C° 0 mm 3 mps 709 mmHg 78%
18:00 +18°C° 0.1 mm 3 mps 709 mmHg 83%
19:00 +17°C° 0.1 mm 3 mps 709 mmHg 88%
20:00 +16°C° 0 mm 1 mps 709 mmHg 90%
21:00 +15°C° 0 mm 1 mps 709 mmHg 92%
22:00 +14°C° 0 mm 1 mps 709 mmHg 100%
23:00 +14°C° 0 mm 1 mps 708 mmHg 100%
Show more

We Need Your Consent

Meteoprog and our Service Providers may store and access personal data such as cookies, device identifiers or other similar technologies on your device and process such data to personalise content and ads, as well as provide social media features and to analyse the traffic.

  • Store and/or access information on your device

    Cookies, device identifiers or other information can be stored or accessed on your device for the purposes indicated above.

  • Personalised ads and content, ad and content measurement, audience insights, and products development

    Ads and content can be personalised based on a profile. More data can be added to better personalise ads and content. Ad and content performance can be measured. Insights about the audience who saw the ads and content can be derived. Such data can be used to develop or improve user’s experience, systems and software.

By clicking ‘I Agree’ you will allow the use of indicated cookies, device identifiers, web beacons or other similar technologies. Your settings can be changed in the browser on your device.

For certain purposes, legitimate interests may be relied on, rather than consent. You can read more about this in our Privacy and Cookie Policy.